Tracking 18987 objects as of 24-Feb-2018
HD Live streaming from Space Station
objects crossing your sky now

COSMOS 1546

Track COSMOS 1546 now!
COSMOS 1546 is classified as:


NORAD ID: 14867
Int'l Code: 1984-031A
Perigee: 35,685.9 km
Apogee: 35,908.9 km
Inclination: 13.9 °
Period: 1,436.3 minutes
Semi major axis: 42168 km
RCS: 0.14 m2 (medium)
Launch date: March 29, 1984
Source: Commonwealth of Independent States (former USSR) (CIS)
Launch site: TYURATAM MISSILE AND SPACE COMPLEX (TTMTR)
aabbcc
Your satellite tracking list
Your tracking list is empty




NASA's NSSDC Master Catalog

Two Line Element Set (TLE):
1 14867U 84031A   18055.02730602 -.00000088  00000-0  00000+0 0  9997
2 14867  13.8635 338.5734 0026447 301.8242 316.3008  1.00258831 87486
Source of the keplerian elements: AFSPC